| time (UTC) | temp F | wind direction | speed MPH | gust MPH | rain 1hr in | rain 24hr in | rain mn in | humidity % | barometer mb |
| 20260901110004 | 79 | 209 | 2.0 | 4.0 | 0.00 | 0.00 | 0.00 | 85 | 1015.5 |
| 20260901105501 | 79 | 191 | 2.0 | 3.0 | 0.00 | 0.00 | 0.00 | 85 | 1015.4 |
| 20260901105002 | 79 | 186 | 2.0 | 3.0 | 0.00 | 0.00 | 0.00 | 85 | 1015.4 |
| 20260901104503 | 79 | 240 | 2.0 | 3.0 | 0.00 | 0.00 | 0.00 | 85 | 1015.4 |
| 20260901104001 | 79 | 219 | 2.0 | 2.0 | 0.00 | 0.00 | 0.00 | 85 | 1015.3 |
| 20260901103501 | 79 | 245 | 1.0 | 2.0 | 0.00 | 0.00 | 0.00 | 85 | 1015.2 |
| 20260901103232 | 79 | 219 | 1.0 | 2.0 | 0.00 | 0.00 | 0.00 | 86 | 1015.2 |
| 20260901102502 | 79 | 227 | 1.0 | 2.0 | 0.00 | 0.00 | 0.00 | 85 | 1015.2 |
| 20260901102002 | 79 | 290 | 1.0 | 2.0 | 0.00 | 0.00 | 0.00 | 85 | 1015.2 |
| 20260901101502 | 79 | 240 | 1.0 | 2.0 | 0.00 | 0.00 | 0.00 | 85 | 1015.0 |
| 20260901101001 | 79 | 231 | 2.0 | 3.0 | 0.00 | 0.00 | 0.00 | 85 | 1015.2 |
| 20260901100501 | 79 | 204 | 2.0 | 3.0 | 0.00 | 0.00 | 0.00 | 84 | 1015.2 |
| 20260901100002 | 79 | 167 | 2.0 | 4.0 | 0.00 | 0.00 | 0.00 | 84 | 1015.2 |
| 20260901095502 | 79 | 198 | 2.0 | 4.0 | 0.00 | 0.00 | 0.00 | 84 | 1015.3 |
| 20260901095228 | 79 | 199 | 2.0 | 4.0 | 0.00 | 0.00 | 0.00 | 84 | 1015.2 |
| 20260901094736 | 79 | 141 | 2.0 | 4.0 | 0.00 | 0.00 | 0.00 | 84 | 1015.2 |
| 20260901094002 | 79 | 204 | 2.0 | 4.0 | 0.00 | 0.00 | 0.00 | 83 | 1015.2 |
| 20260901093501 | 79 | 198 | 2.0 | 4.0 | 0.00 | 0.00 | 0.00 | 83 | 1015.2 |
| 20260901093005 | 79 | 242 | 2.0 | 3.0 | 0.00 | 0.00 | 0.00 | 83 | 1015.3 |
| 20260901092502 | 79 | 226 | 2.0 | 3.0 | 0.00 | 0.00 | 0.00 | 83 | 1015.3 |
| 20260901092003 | 79 | 218 | 2.0 | 4.0 | 0.00 | 0.00 | 0.00 | 83 | 1015.3 |
| 20260901091503 | 79 | 185 | 2.0 | 4.0 | 0.00 | 0.00 | 0.00 | 82 | 1015.3 |
| 20260901091002 | 79 | 218 | 1.0 | 3.0 | 0.00 | 0.00 | 0.00 | 82 | 1015.3 |
| 20260901090731 | 79 | 233 | 0.0 | 2.0 | 0.00 | 0.00 | 0.00 | 82 | 1015.3 |
| 20260901090002 | 80 | 295 | 1.0 | 2.0 | 0.00 | 0.00 | 0.00 | 81 | 1015.4 |
| 20260901085502 | 80 | 269 | 1.0 | 2.0 | 0.00 | 0.00 | 0.00 | 81 | 1015.3 |
| 20260901085002 | 80 | 301 | 1.0 | 2.0 | 0.00 | 0.00 | 0.00 | 80 | 1015.3 |
| 20260901084502 | 80 | 115 | 1.0 | 3.0 | 0.00 | 0.00 | 0.00 | 80 | 1015.3 |
| 20260901084002 | 80 | 90 | 1.0 | 3.0 | 0.00 | 0.00 | 0.00 | 80 | 1015.2 |
| 20260901083501 | 80 | 156 | 1.0 | 2.0 | 0.00 | 0.00 | 0.00 | 80 | 1015.2 |
| 20260901083002 | 80 | 0 | 1.0 | 2.0 | 0.00 | 0.00 | 0.00 | 79 | 1015.2 |
| 20260901082502 | 80 | 289 | 1.0 | 2.0 | 0.00 | 0.00 | 0.00 | 79 | 1015.2 |
| 20260901082456 | 80 | 287 | 1.0 | 2.0 | 0.00 | 0.00 | 0.00 | 79 | 1015.2 |
| 20260901081502 | 80 | 186 | 1.0 | 3.0 | 0.00 | 0.00 | 0.00 | 78 | 1015.2 |
| 20260901081002 | 80 | 176 | 1.0 | 3.0 | 0.00 | 0.00 | 0.00 | 78 | 1015.2 |
| 20260901080502 | 80 | 243 | 1.0 | 2.0 | 0.00 | 0.00 | 0.00 | 78 | 1015.3 |
| 20260901075948 | 81 | 273 | 1.0 | 3.0 | 0.00 | 0.00 | 0.00 | 78 | 1015.3 |
| 20260901075448 | 81 | 291 | 1.0 | 3.0 | 0.00 | 0.00 | 0.00 | 77 | 1015.3 |
| 20260901074948 | 81 | 283 | 2.0 | 3.0 | 0.00 | 0.00 | 0.00 | 77 | 1015.3 |
| 20260901074447 | 81 | 222 | 2.0 | 3.0 | 0.00 | 0.00 | 0.00 | 77 | 1015.3 |
| 20260901073948 | 81 | 211 | 1.0 | 3.0 | 0.00 | 0.00 | 0.00 | 77 | 1015.3 |
| 20260901073715 | 81 | 277 | 1.0 | 3.0 | 0.00 | 0.00 | 0.00 | 76 | 1015.3 |
| 20260901072947 | 81 | 244 | 1.0 | 3.0 | 0.00 | 0.00 | 0.00 | 76 | 1015.4 |
| 20260901072448 | 81 | 0 | 1.0 | 2.0 | 0.00 | 0.00 | 0.00 | 76 | 1015.4 |
| 20260901071948 | 81 | 0 | 1.0 | 2.0 | 0.00 | 0.00 | 0.00 | 76 | 1015.4 |
| 20260901071448 | 81 | 277 | 1.0 | 2.0 | 0.00 | 0.00 | 0.00 | 76 | 1015.5 |
| 20260901070949 | 82 | 217 | 1.0 | 2.0 | 0.00 | 0.00 | 0.00 | 75 | 1015.4 |
| 20260901070923 | 82 | 0 | 1.0 | 2.0 | 0.00 | 0.00 | 0.00 | 75 | 1015.4 |
| 20260901065931 | 82 | 148 | 1.0 | 2.0 | 0.00 | 0.00 | 0.00 | 75 | 1015.3 |
| 20260901065431 | 82 | 108 | 1.0 | 2.0 | 0.00 | 0.00 | 0.00 | 75 | 1015.4 |
| 20260901064930 | 82 | 268 | 2.0 | 4.0 | 0.00 | 0.00 | 0.00 | 75 | 1015.4 |
| 20260901064659 | 82 | 226 | 2.0 | 4.0 | 0.00 | 0.00 | 0.00 | 74 | 1015.3 |
| 20260901063930 | 82 | 187 | 2.0 | 2.0 | 0.00 | 0.00 | 0.00 | 74 | 1015.3 |
| 20260901063659 | 82 | 88 | 2.0 | 4.0 | 0.00 | 0.00 | 0.00 | 74 | 1015.3 |
| 20260901062929 | 82 | 163 | 2.0 | 4.0 | 0.00 | 0.00 | 0.00 | 73 | 1015.2 |
| 20260901062431 | 83 | 76 | 2.0 | 6.0 | 0.00 | 0.00 | 0.00 | 72 | 1015.2 |
| 20260901061930 | 83 | 258 | 2.0 | 6.0 | 0.00 | 0.00 | 0.00 | 72 | 1015.2 |
| 20260901061430 | 83 | 245 | 2.0 | 5.0 | 0.00 | 0.00 | 0.00 | 72 | 1015.2 |
| 20260901061203 | 83 | 280 | 2.0 | 5.0 | 0.00 | 0.00 | 0.00 | 71 | 1015.0 |
| 20260901060433 | 83 | 317 | 2.0 | 5.0 | 0.00 | 0.00 | 0.00 | 71 | 1014.9 |
| 20260901055929 | 83 | 24 | 2.0 | 5.0 | 0.00 | 0.00 | 0.00 | 70 | 1014.9 |
| 20260901055430 | 83 | 199 | 2.0 | 5.0 | 0.00 | 0.00 | 0.00 | 70 | 1014.9 |
| 20260901054931 | 83 | 165 | 2.0 | 5.0 | 0.00 | 0.00 | 0.00 | 69 | 1014.9 |
| 20260901054429 | 83 | 279 | 2.0 | 6.0 | 0.00 | 0.00 | 0.00 | 69 | 1014.8 |
| 20260901053929 | 83 | 175 | 2.0 | 6.0 | 0.00 | 0.00 | 0.00 | 69 | 1014.8 |
| 20260901053429 | 84 | 228 | 2.0 | 5.0 | 0.00 | 0.00 | 0.00 | 69 | 1014.9 |
| 20260901052930 | 84 | 268 | 2.0 | 6.0 | 0.00 | 0.00 | 0.00 | 68 | 1014.9 |
| 20260901052429 | 84 | 179 | 2.0 | 6.0 | 0.00 | 0.00 | 0.00 | 68 | 1014.9 |
| 20260901051929 | 84 | 341 | 2.0 | 5.0 | 0.00 | 0.00 | 0.00 | 68 | 1014.8 |
| 20260901051655 | 84 | 105 | 1.0 | 4.0 | 0.00 | 0.00 | 0.00 | 67 | 1014.7 |
| 20260901051156 | 84 | 255 | 2.0 | 4.0 | 0.00 | 0.00 | 0.00 | 67 | 1014.7 |
| 20260901050429 | 84 | 196 | 2.0 | 4.0 | 0.00 | 0.00 | 0.00 | 66 | 1014.6 |
| 20260901045930 | 85 | 114 | 2.0 | 4.0 | 0.00 | 0.00 | 0.00 | 66 | 1014.6 |
| 20260901045431 | 85 | 223 | 2.0 | 5.0 | 0.00 | 0.00 | 0.00 | 66 | 1014.5 |
| 20260901045210 | 85 | 314 | 2.0 | 5.0 | 0.00 | 0.00 | 0.00 | 65 | 1014.4 |
| 20260901044430 | 85 | 226 | 2.0 | 5.0 | 0.00 | 0.00 | 0.00 | 65 | 1014.4 |
| 20260901043930 | 85 | 228 | 2.0 | 6.0 | 0.00 | 0.00 | 0.00 | 65 | 1014.4 |
| 20260901043428 | 85 | 71 | 2.0 | 6.0 | 0.00 | 0.00 | 0.00 | 65 | 1014.4 |
| 20260901042928 | 85 | 169 | 2.0 | 8.0 | 0.00 | 0.00 | 0.00 | 64 | 1014.4 |
| 20260901042427 | 85 | 249 | 2.0 | 8.0 | 0.00 | 0.00 | 0.00 | 64 | 1014.4 |
| 20260901041922 | 85 | 145 | 2.0 | 5.0 | 0.00 | 0.00 | 0.00 | 64 | 1014.3 |
| 20260901041406 | 85 | 63 | 2.0 | 4.0 | 0.00 | 0.00 | 0.00 | 63 | 1014.3 |
| 20260901040907 | 86 | 88 | 2.0 | 4.0 | 0.00 | 0.00 | 0.00 | 63 | 1014.3 |
| 20260901040407 | 86 | 142 | 3.0 | 5.0 | 0.00 | 0.00 | 0.00 | 62 | 1014.4 |
| 20260901040133 | 86 | 107 | 3.0 | 6.0 | 0.00 | 0.00 | 0.00 | 62 | 1014.4 |
| 20260901035401 | 86 | 242 | 2.0 | 6.0 | 0.00 | 0.00 | 0.00 | 61 | 1014.3 |
| 20260901035143 | 86 | 129 | 3.0 | 6.0 | 0.00 | 0.00 | 0.00 | 60 | 1014.3 |
| 20260901034402 | 86 | 83 | 3.0 | 5.0 | 0.00 | 0.00 | 0.00 | 60 | 1014.2 |
| 20260901033903 | 86 | 86 | 3.0 | 9.0 | 0.00 | 0.00 | 0.00 | 59 | 1014.2 |
| 20260901033400 | 87 | 104 | 3.0 | 9.0 | 0.00 | 0.00 | 0.00 | 58 | 1014.3 |
| 20260901032900 | 87 | 89 | 3.0 | 6.0 | 0.00 | 0.00 | 0.00 | 57 | 1014.3 |
| 20260901032405 | 87 | 88 | 2.0 | 7.0 | 0.00 | 0.00 | 0.00 | 56 | 1014.2 |
| 20260901031901 | 87 | 11 | 3.0 | 7.0 | 0.00 | 0.00 | 0.00 | 55 | 1014.2 |
| 20260901031401 | 87 | 122 | 4.0 | 7.0 | 0.00 | 0.00 | 0.00 | 54 | 1014.2 |
| 20260901030902 | 88 | 138 | 2.0 | 5.0 | 0.00 | 0.00 | 0.00 | 53 | 1014.0 |
| 20260901030402 | 88 | 115 | 2.0 | 5.0 | 0.00 | 0.00 | 0.00 | 53 | 1014.0 |
| 20260901025901 | 88 | 110 | 2.0 | 6.0 | 0.00 | 0.00 | 0.00 | 52 | 1013.9 |
| 20260901025402 | 88 | 111 | 2.0 | 6.0 | 0.00 | 0.00 | 0.00 | 50 | 1013.8 |
| 20260901024901 | 88 | 107 | 2.0 | 6.0 | 0.00 | 0.00 | 0.00 | 49 | 1013.7 |
| 20260901024402 | 89 | 123 | 2.0 | 4.0 | 0.00 | 0.00 | 0.00 | 48 | 1013.7 |
| 20260901023902 | 89 | 120 | 2.0 | 4.0 | 0.00 | 0.00 | 0.00 | 47 | 1013.6 |
| 20260901023404 | 89 | 219 | 2.0 | 4.0 | 0.00 | 0.00 | 0.00 | 45 | 1013.5 |
| 20260901022904 | 89 | 21 | 2.0 | 4.0 | 0.00 | 0.00 | 0.00 | 45 | 1013.4 |
| 20260901022352 | 89 | 78 | 1.0 | 4.0 | 0.00 | 0.00 | 0.00 | 44 | 1013.3 |
| 20260901021851 | 90 | 89 | 2.0 | 5.0 | 0.00 | 0.00 | 0.00 | 43 | 1013.2 |
| 20260901021341 | 90 | 88 | 2.0 | 5.0 | 0.00 | 0.00 | 0.00 | 43 | 1013.1 |
| 20260901020838 | 90 | 306 | 2.0 | 4.0 | 0.00 | 0.00 | 0.00 | 43 | 1013.1 |
| 20260901020338 | 90 | 48 | 2.0 | 4.0 | 0.00 | 0.00 | 0.00 | 42 | 1013.0 |
| 20260901015831 | 90 | 91 | 2.0 | 4.0 | 0.00 | 0.00 | 0.00 | 42 | 1012.9 |
| 20260901015330 | 90 | 91 | 2.0 | 4.0 | 0.00 | 0.00 | 0.00 | 42 | 1012.8 |
| 20260901014830 | 91 | 82 | 2.0 | 3.0 | 0.00 | 0.00 | 0.00 | 42 | 1012.8 |
| 20260901014330 | 91 | 43 | 2.0 | 3.0 | 0.00 | 0.00 | 0.00 | 42 | 1012.8 |
| 20260901014106 | 91 | 83 | 2.0 | 3.0 | 0.00 | 0.00 | 0.00 | 41 | 1012.8 |
| 20260901014100 | 91 | 110 | 2.0 | 4.0 | 0.00 | 0.00 | 0.00 | 41 | 1012.7 |
| 20260901012830 | 91 | 77 | 2.0 | 4.0 | 0.00 | 0.00 | 0.00 | 41 | 1012.7 |
| 20260901012559 | 91 | 9 | 1.0 | 4.0 | 0.00 | 0.00 | 0.00 | 41 | 1012.7 |
| 20260901011831 | 92 | 77 | 2.0 | 4.0 | 0.00 | 0.00 | 0.00 | 41 | 1012.6 |
| 20260901011324 | 92 | 95 | 2.0 | 4.0 | 0.00 | 0.00 | 0.00 | 41 | 1012.6 |
| 20260901010824 | 92 | 87 | 2.0 | 4.0 | 0.00 | 0.00 | 0.00 | 41 | 1012.6 |
| 20260901010324 | 93 | 38 | 2.0 | 4.0 | 0.00 | 0.00 | 0.00 | 40 | 1012.5 |
| 20260901005824 | 93 | 66 | 2.0 | 5.0 | 0.00 | 0.00 | 0.00 | 40 | 1012.5 |
| 20260901005317 | 93 | 88 | 2.0 | 6.0 | 0.00 | 0.00 | 0.00 | 39 | 1012.5 |
| 20260901005059 | 94 | 95 | 2.0 | 6.0 | 0.00 | 0.00 | 0.00 | 39 | 1012.5 |
| 20260901004315 | 94 | 3 | 2.0 | 7.0 | 0.00 | 0.00 | 0.00 | 38 | 1012.5 |
| 20260901003812 | 94 | 72 | 2.0 | 7.0 | 0.00 | 0.00 | 0.00 | 38 | 1012.5 |
| 20260901003312 | 94 | 145 | 2.0 | 7.0 | 0.00 | 0.00 | 0.00 | 38 | 1012.5 |
| 20260901002811 | 95 | 86 | 2.0 | 7.0 | 0.00 | 0.00 | 0.00 | 38 | 1012.5 |
| 20260901002312 | 95 | 339 | 2.0 | 5.0 | 0.00 | 0.00 | 0.00 | 38 | 1012.5 |
| 20260901001809 | 95 | 51 | 2.0 | 5.0 | 0.00 | 0.00 | 0.00 | 37 | 1012.4 |
| 20260901001312 | 96 | 106 | 1.0 | 6.0 | 0.00 | 0.00 | 0.00 | 37 | 1012.3 |
| 20260901000807 | 96 | 147 | 2.0 | 7.0 | 0.00 | 0.00 | 0.00 | 36 | 1012.3 |
| 20260901000303 | 96 | 357 | 2.0 | 7.0 | 0.00 | 0.00 | 0.00 | 36 | 1012.3 |
| 20260831235801 | 96 | 94 | 2.0 | 5.0 | 0.00 | 0.00 | 0.00 | 35 | 1012.3 |
| 20260831235545 | 96 | 32 | 2.0 | 6.0 | 0.00 | 0.00 | 0.00 | 36 | 1012.3 |
| 20260831234802 | 96 | 324 | 3.0 | 7.0 | 0.00 | 0.00 | 0.00 | 36 | 1012.3 |
| 20260831234301 | 97 | 352 | 3.0 | 7.0 | 0.00 | 0.00 | 0.00 | 36 | 1012.3 |
| 20260831233802 | 97 | 17 | 3.0 | 8.0 | 0.00 | 0.00 | 0.00 | 36 | 1012.3 |
| 20260831233301 | 97 | 136 | 3.0 | 8.0 | 0.00 | 0.00 | 0.00 | 36 | 1012.3 |
| 20260831233043 | 97 | 20 | 2.0 | 5.0 | 0.00 | 0.00 | 0.00 | 36 | 1012.3 |
| 20260831232305 | 97 | 8 | 2.0 | 6.0 | 0.00 | 0.00 | 0.00 | 36 | 1012.3 |
| 20260831231802 | 97 | 96 | 3.0 | 7.0 | 0.00 | 0.00 | 0.00 | 36 | 1012.3 |
| 20260831231300 | 98 | 177 | 2.0 | 7.0 | 0.00 | 0.00 | 0.00 | 35 | 1012.3 |
| 20260831231042 | 97 | 175 | 3.0 | 8.0 | 0.00 | 0.00 | 0.00 | 35 | 1012.3 |
| 20260831230301 | 97 | 357 | 2.0 | 8.0 | 0.00 | 0.00 | 0.00 | 36 | 1012.4 |
| 20260831225801 | 97 | 14 | 2.0 | 6.0 | 0.00 | 0.00 | 0.00 | 35 | 1012.3 |
| 20260831225301 | 97 | 85 | 3.0 | 7.0 | 0.00 | 0.00 | 0.00 | 34 | 1012.4 |
| 20260831224802 | 97 | 103 | 3.0 | 7.0 | 0.00 | 0.00 | 0.00 | 35 | 1012.5 |
| 20260831224337 | 97 | 0 | 3.0 | 9.0 | 0.00 | 0.00 | 0.00 | 37 | 1012.4 |
| 20260831224324 | 97 | 153 | 3.0 | 6.0 | 0.00 | 0.00 | 0.00 | 36 | 1012.4 |
| 20260831223302 | 98 | 336 | 3.0 | 9.0 | 0.00 | 0.00 | 0.00 | 38 | 1012.5 |
| 20260831222802 | 99 | 24 | 2.0 | 6.0 | 0.00 | 0.00 | 0.00 | 36 | 1012.5 |
| 20260831222301 | 100 | 308 | 2.0 | 5.0 | 0.00 | 0.00 | 0.00 | 35 | 1012.6 |
| 20260831221802 | 99 | 208 | 2.0 | 5.0 | 0.00 | 0.00 | 0.00 | 35 | 1012.6 |
| 20260831221301 | 99 | 82 | 2.0 | 6.0 | 0.00 | 0.00 | 0.00 | 35 | 1012.6 |
| 20260831220804 | 99 | 319 | 2.0 | 6.0 | 0.00 | 0.00 | 0.00 | 34 | 1012.6 |
| 20260831220302 | 99 | 21 | 2.0 | 6.0 | 0.00 | 0.00 | 0.00 | 34 | 1012.6 |
| 20260831215801 | 99 | 124 | 2.0 | 6.0 | 0.00 | 0.00 | 0.00 | 33 | 1012.6 |
| 20260831215306 | 99 | 101 | 1.0 | 6.0 | 0.00 | 0.00 | 0.00 | 34 | 1012.7 |
| 20260831215046 | 99 | 186 | 2.0 | 6.0 | 0.00 | 0.00 | 0.00 | 34 | 1012.8 |
| 20260831214302 | 99 | 113 | 2.0 | 6.0 | 0.00 | 0.00 | 0.00 | 34 | 1012.9 |
| 20260831213801 | 99 | 225 | 2.0 | 6.0 | 0.00 | 0.00 | 0.00 | 35 | 1013.0 |
| 20260831213302 | 99 | 207 | 2.0 | 6.0 | 0.00 | 0.00 | 0.00 | 35 | 1012.9 |
| 20260831212801 | 99 | 337 | 2.0 | 5.0 | 0.00 | 0.00 | 0.00 | 36 | 1013.0 |
| 20260831212301 | 98 | 156 | 2.0 | 5.0 | 0.00 | 0.00 | 0.00 | 34 | 1013.1 |
| 20260831211801 | 98 | 265 | 2.0 | 6.0 | 0.00 | 0.00 | 0.00 | 34 | 1013.1 |
| 20260831211301 | 98 | 322 | 2.0 | 6.0 | 0.00 | 0.00 | 0.00 | 37 | 1013.2 |
| 20260831210800 | 98 | 225 | 2.0 | 6.0 | 0.00 | 0.00 | 0.00 | 39 | 1013.4 |
| 20260831210302 | 97 | 80 | 3.0 | 8.0 | 0.00 | 0.00 | 0.00 | 39 | 1013.4 |
| 20260831205818 | 97 | 75 | 3.0 | 7.0 | 0.00 | 0.00 | 0.00 | 40 | 1013.6 |
| 20260831205811 | 97 | 2 | 3.0 | 8.0 | 0.00 | 0.00 | 0.00 | 39 | 1013.5 |
| 20260831204801 | 98 | 5 | 4.0 | 7.0 | 0.00 | 0.00 | 0.00 | 39 | 1013.6 |
| 20260831204301 | 99 | 4 | 3.0 | 7.0 | 0.00 | 0.00 | 0.00 | 39 | 1013.7 |
| 20260831203802 | 98 | 102 | 3.0 | 9.0 | 0.00 | 0.00 | 0.00 | 40 | 1013.9 |
| 20260831203301 | 98 | 12 | 3.0 | 11.0 | 0.00 | 0.00 | 0.00 | 39 | 1013.9 |
| 20260831202803 | 99 | 192 | 4.0 | 11.0 | 0.00 | 0.00 | 0.00 | 39 | 1014.0 |
| 20260831202305 | 98 | 263 | 2.0 | 6.0 | 0.00 | 0.00 | 0.00 | 41 | 1014.1 |
| 20260831202030 | 98 | 21 | 2.0 | 8.0 | 0.00 | 0.00 | 0.00 | 41 | 1014.1 |
| 20260831201300 | 98 | 123 | 2.0 | 8.0 | 0.00 | 0.00 | 0.00 | 40 | 1014.3 |
| 20260831200802 | 96 | 115 | 2.0 | 6.0 | 0.00 | 0.00 | 0.00 | 41 | 1014.3 |
| 20260831200301 | 96 | 42 | 2.0 | 7.0 | 0.00 | 0.00 | 0.00 | 42 | 1014.4 |
| 20260831200052 | 96 | 104 | 3.0 | 7.0 | 0.00 | 0.00 | 0.00 | 42 | 1014.4 |
| 20260831195301 | 96 | 89 | 3.0 | 7.0 | 0.00 | 0.00 | 0.00 | 39 | 1014.5 |
| 20260831195053 | 96 | 98 | 3.0 | 8.0 | 0.00 | 0.00 | 0.00 | 41 | 1014.5 |
| 20260831194301 | 97 | 54 | 3.0 | 9.0 | 0.00 | 0.00 | 0.00 | 41 | 1014.5 |
| 20260831193801 | 97 | 122 | 3.0 | 9.0 | 0.00 | 0.00 | 0.00 | 42 | 1014.7 |
| 20260831193301 | 97 | 334 | 2.0 | 7.0 | 0.00 | 0.00 | 0.00 | 43 | 1014.7 |
| 20260831192802 | 97 | 130 | 2.0 | 5.0 | 0.00 | 0.00 | 0.00 | 44 | 1014.7 |
| 20260831192305 | 97 | 87 | 2.0 | 5.0 | 0.00 | 0.00 | 0.00 | 42 | 1014.9 |
| 20260831191804 | 97 | 315 | 2.0 | 5.0 | 0.00 | 0.00 | 0.00 | 43 | 1014.9 |
| 20260831191301 | 97 | 332 | 2.0 | 5.0 | 0.00 | 0.00 | 0.00 | 43 | 1014.9 |
| 20260831190802 | 98 | 347 | 2.0 | 6.0 | 0.00 | 0.00 | 0.00 | 43 | 1015.0 |
| 20260831190302 | 97 | 269 | 2.0 | 9.0 | 0.00 | 0.00 | 0.00 | 42 | 1015.2 |
| 20260831185800 | 97 | 145 | 2.0 | 9.0 | 0.00 | 0.00 | 0.00 | 43 | 1015.3 |
| 20260831185301 | 96 | 199 | 2.0 | 8.0 | 0.00 | 0.00 | 0.00 | 46 | 1015.3 |
| 20260831184802 | 96 | 332 | 2.0 | 6.0 | 0.00 | 0.00 | 0.00 | 45 | 1015.3 |
| 20260831184546 | 96 | 24 | 2.0 | 7.0 | 0.00 | 0.00 | 0.00 | 45 | 1015.5 |
| 20260831184046 | 96 | 168 | 2.0 | 7.0 | 0.00 | 0.00 | 0.00 | 44 | 1015.5 |
| 20260831183302 | 96 | 144 | 2.0 | 6.0 | 0.00 | 0.00 | 0.00 | 47 | 1015.5 |
| 20260831182801 | 95 | 288 | 2.0 | 6.0 | 0.00 | 0.00 | 0.00 | 46 | 1015.6 |
| 20260831182545 | 95 | 208 | 2.0 | 6.0 | 0.00 | 0.00 | 0.00 | 46 | 1015.5 |
| 20260831181803 | 95 | 4 | 2.0 | 9.0 | 0.00 | 0.00 | 0.00 | 47 | 1015.6 |
| 20260831181302 | 95 | 69 | 2.0 | 9.0 | 0.00 | 0.00 | 0.00 | 48 | 1015.7 |
| 20260831181046 | 95 | 116 | 2.0 | 6.0 | 0.00 | 0.00 | 0.00 | 49 | 1015.7 |
| 20260831180300 | 94 | 83 | 2.0 | 5.0 | 0.00 | 0.00 | 0.00 | 50 | 1015.7 |
| 20260831180047 | 94 | 359 | 2.0 | 6.0 | 0.00 | 0.00 | 0.00 | 50 | 1015.8 |
| 20260831175305 | 94 | 325 | 2.0 | 7.0 | 0.00 | 0.00 | 0.00 | 49 | 1015.9 |
| 20260831174802 | 94 | 233 | 2.0 | 7.0 | 0.00 | 0.00 | 0.00 | 51 | 1016.0 |
| 20260831174302 | 94 | 52 | 3.0 | 6.0 | 0.00 | 0.00 | 0.00 | 49 | 1016.1 |
| 20260831174048 | 94 | 267 | 3.0 | 6.0 | 0.00 | 0.00 | 0.00 | 49 | 1016.1 |
| 20260831173301 | 93 | 144 | 2.0 | 5.0 | 0.00 | 0.00 | 0.00 | 50 | 1016.2 |
| 20260831172800 | 93 | 58 | 2.0 | 8.0 | 0.00 | 0.00 | 0.00 | 50 | 1016.3 |
| 20260831172305 | 94 | 230 | 2.0 | 8.0 | 0.00 | 0.00 | 0.00 | 48 | 1016.3 |
| 20260831172045 | 93 | 217 | 2.0 | 5.0 | 0.00 | 0.00 | 0.00 | 50 | 1016.3 |
| 20260831171543 | 93 | 0 | 1.0 | 8.0 | 0.00 | 0.00 | 0.00 | 54 | 1016.3 |
| 20260831170802 | 92 | 96 | 2.0 | 8.0 | 0.00 | 0.00 | 0.00 | 54 | 1016.5 |
| 20260831170301 | 92 | 326 | 2.0 | 6.0 | 0.00 | 0.00 | 0.00 | 56 | 1016.5 |
| 20260831165802 | 92 | 327 | 2.0 | 6.0 | 0.00 | 0.00 | 0.00 | 55 | 1016.6 |
| 20260831165305 | 92 | 340 | 2.0 | 6.0 | 0.00 | 0.00 | 0.00 | 54 | 1016.6 |
| 20260831164801 | 91 | 187 | 2.0 | 4.0 | 0.00 | 0.00 | 0.00 | 57 | 1016.6 |
| 20260831164302 | 91 | 126 | 2.0 | 6.0 | 0.00 | 0.00 | 0.00 | 58 | 1016.6 |
| 20260831163801 | 91 | 210 | 2.0 | 6.0 | 0.00 | 0.00 | 0.00 | 58 | 1016.6 |
| 20260831163301 | 92 | 154 | 2.0 | 6.0 | 0.00 | 0.00 | 0.00 | 57 | 1016.5 |
| 20260831163043 | 90 | 77 | 2.0 | 6.0 | 0.00 | 0.00 | 0.00 | 58 | 1016.5 |
| 20260831162305 | 90 | 107 | 2.0 | 7.0 | 0.00 | 0.00 | 0.00 | 58 | 1016.5 |
| 20260831161801 | 90 | 292 | 2.0 | 7.0 | 0.00 | 0.00 | 0.00 | 59 | 1016.5 |
| 20260831161301 | 90 | 125 | 2.0 | 7.0 | 0.00 | 0.00 | 0.00 | 59 | 1016.4 |
| 20260831160800 | 90 | 299 | 2.0 | 6.0 | 0.00 | 0.00 | 0.00 | 60 | 1016.5 |
| 20260831160301 | 90 | 74 | 2.0 | 6.0 | 0.00 | 0.00 | 0.00 | 61 | 1016.5 |
| 20260831160046 | 89 | 161 | 2.0 | 6.0 | 0.00 | 0.00 | 0.00 | 60 | 1016.5 |
| 20260831155306 | 89 | 106 | 2.0 | 5.0 | 0.00 | 0.00 | 0.00 | 60 | 1016.5 |
| 20260831154801 | 89 | 215 | 2.0 | 5.0 | 0.00 | 0.00 | 0.00 | 61 | 1016.5 |
| 20260831154546 | 89 | 110 | 2.0 | 7.0 | 0.00 | 0.00 | 0.00 | 59 | 1016.6 |
| 20260831153801 | 89 | 213 | 2.0 | 7.0 | 0.00 | 0.00 | 0.00 | 63 | 1016.5 |
| 20260831153301 | 89 | 166 | 2.0 | 5.0 | 0.00 | 0.00 | 0.00 | 64 | 1016.5 |
| 20260831152800 | 89 | 70 | 1.0 | 4.0 | 0.00 | 0.00 | 0.00 | 64 | 1016.4 |
| 20260831152547 | 89 | 340 | 2.0 | 5.0 | 0.00 | 0.00 | 0.00 | 66 | 1016.5 |
| 20260831151801 | 88 | 353 | 2.0 | 5.0 | 0.00 | 0.00 | 0.00 | 67 | 1016.4 |
| 20260831151300 | 88 | 10 | 2.0 | 5.0 | 0.00 | 0.00 | 0.00 | 68 | 1016.4 |
| 20260831150801 | 88 | 205 | 2.0 | 5.0 | 0.00 | 0.00 | 0.00 | 68 | 1016.4 |
| 20260831150302 | 87 | 267 | 2.0 | 5.0 | 0.00 | 0.00 | 0.00 | 69 | 1016.3 |
| 20260831145800 | 87 | 228 | 2.0 | 7.0 | 0.00 | 0.00 | 0.00 | 72 | 1016.3 |
| 20260831145306 | 86 | 223 | 3.0 | 7.0 | 0.00 | 0.00 | 0.00 | 72 | 1016.3 |
| 20260831144801 | 85 | 182 | 3.0 | 7.0 | 0.00 | 0.00 | 0.00 | 72 | 1016.2 |
| 20260831144302 | 0 | 225 | 3.0 | 4.0 | 0.00 | 0.00 | 0.00 | ||
| 20260831143802 | 84 | 225 | 3.0 | 8.0 | 0.00 | 0.00 | 0.00 | 74 | 1016.2 |
| 20260831143301 | 84 | 225 | 3.0 | 8.0 | 0.00 | 0.00 | 0.00 | 74 | 1016.2 |
| 20260831142801 | 84 | 235 | 3.0 | 7.0 | 0.00 | 0.00 | 0.00 | 76 | 1016.2 |
| 20260831142305 | 82 | 207 | 4.0 | 7.0 | 0.00 | 0.00 | 0.00 | 78 | 1016.2 |
| 20260831141802 | 82 | 221 | 4.0 | 7.0 | 0.00 | 0.00 | 0.00 | 78 | 1016.2 |
| 20260831141301 | 82 | 205 | 4.0 | 7.0 | 0.00 | 0.00 | 0.00 | 79 | 1016.1 |
| 20260831141032 | 83 | 212 | 3.0 | 6.0 | 0.00 | 0.00 | 0.00 | 79 | 1016.1 |
| 20260831140305 | 83 | 218 | 3.0 | 6.0 | 0.00 | 0.00 | 0.00 | 79 | 1016.1 |
| 20260831135803 | 83 | 219 | 5.0 | 0.0 | 0.00 | 0.00 | 0.00 | 79 | 1016.1 |
| 20260831135504 | 83 | 270 | 4.0 | 6.0 | 0.00 | 0.00 | 0.00 | 81 | 1015.9 |
| 20260831135002 | 83 | 270 | 4.0 | 7.0 | 0.00 | 0.00 | 0.00 | 81 | 1015.9 |
| 20260831134712 | 83 | 192 | 3.0 | 7.0 | 0.00 | 0.00 | 0.00 | 80 | 1015.9 |
| 20260831133932 | 82 | 213 | 3.0 | 6.0 | 0.00 | 0.00 | 0.00 | 81 | 1015.9 |
| 20260831133435 | 82 | 226 | 3.0 | 6.0 | 0.00 | 0.00 | 0.00 | 81 | 1015.8 |
| 20260831132932 | 82 | 212 | 3.0 | 5.0 | 0.00 | 0.00 | 0.00 | 82 | 1015.8 |
| 20260831132432 | 82 | 226 | 2.0 | 5.0 | 0.00 | 0.00 | 0.00 | 83 | 1015.8 |
| 20260831131931 | 81 | 190 | 2.0 | 3.0 | 0.00 | 0.00 | 0.00 | 85 | 1015.7 |
| 20260831131430 | 81 | 191 | 1.0 | 3.0 | 0.00 | 0.00 | 0.00 | 85 | 1015.7 |
| 20260831130931 | 81 | 96 | 1.0 | 2.0 | 0.00 | 0.00 | 0.00 | 86 | 1015.7 |
| 20260831130433 | 80 | 114 | 1.0 | 3.0 | 0.00 | 0.00 | 0.00 | 87 | 1015.6 |
| 20260831125930 | 80 | 212 | 1.0 | 3.0 | 0.00 | 0.00 | 0.00 | 88 | 1015.6 |
| 20260831125430 | 80 | 148 | 1.0 | 2.0 | 0.00 | 0.00 | 0.00 | 88 | 1015.5 |
| 20260831124930 | 79 | 0 | 0.0 | 2.0 | 0.00 | 0.00 | 0.00 | 89 | 1015.4 |
| 20260831124429 | 78 | 218 | 1.0 | 3.0 | 0.00 | 0.00 | 0.00 | 90 | 1015.3 |
| 20260831123931 | 78 | 147 | 1.0 | 3.0 | 0.00 | 0.00 | 0.00 | 91 | 1015.3 |
| 20260831123431 | 78 | 206 | 0.0 | 3.0 | 0.00 | 0.00 | 0.00 | 92 | 1015.3 |
| 20260831123154 | 78 | 0 | 1.0 | 2.0 | 0.00 | 0.00 | 0.00 | 91 | 1015.3 |
| 20260831122429 | 78 | 192 | 1.0 | 2.0 | 0.00 | 0.00 | 0.00 | 91 | 1015.3 |
| 20260831121930 | 78 | 204 | 0.0 | 2.0 | 0.00 | 0.00 | 0.00 | 91 | 1015.2 |
| 20260831121430 | 78 | 173 | 0.0 | 2.0 | 0.00 | 0.00 | 0.00 | 91 | 1015.2 |
| 20260831120931 | 78 | 314 | 1.0 | 2.0 | 0.00 | 0.00 | 0.00 | 91 | 1015.2 |
| 20260831120430 | 78 | 239 | 1.0 | 2.0 | 0.00 | 0.00 | 0.00 | 90 | 1015.2 |
| 20260831120158 | 78 | 204 | 2.0 | 3.0 | 0.00 | 0.00 | 0.00 | 90 | 1015.2 |
| 20260831115654 | 78 | 192 | 2.0 | 3.0 | 0.00 | 0.00 | 0.00 | 90 | 1015.2 |
| 20260831114929 | 78 | 216 | 2.0 | 3.0 | 0.00 | 0.00 | 0.00 | 90 | 1015.2 |
| 20260831114430 | 78 | 207 | 2.0 | 3.0 | 0.00 | 0.00 | 0.00 | 90 | 1015.2 |
| 20260831113930 | 78 | 242 | 1.0 | 3.0 | 0.00 | 0.00 | 0.00 | 90 | 1015.0 |
| 20260831113430 | 78 | 211 | 2.0 | 4.0 | 0.00 | 0.00 | 0.00 | 90 | 1015.2 |
| 20260831113159 | 78 | 197 | 2.0 | 4.0 | 0.00 | 0.00 | 0.00 | 89 | 1015.2 |
| 20260831112430 | 78 | 204 | 2.0 | 5.0 | 0.00 | 0.00 | 0.00 | 89 | 1015.2 |
| 20260831111928 | 79 | 238 | 2.0 | 5.0 | 0.00 | 0.00 | 0.00 | 89 | 1015.2 |
| 20260831111429 | 79 | 219 | 2.0 | 5.0 | 0.00 | 0.00 | 0.00 | 89 | 1015.0 |
| 20260831111156 | 79 | 233 | 2.0 | 3.0 | 0.00 | 0.00 | 0.00 | 89 | 1014.9 |
| 20260831110430 | 79 | 182 | 2.0 | 4.0 | 0.00 | 0.00 | 0.00 | 88 | 1014.9 |